| time (UTC) | temp F | wind direction | speed MPH | gust MPH | rain 1hr in | rain 24hr in | rain mn in | humidity % | barometer mb |
| 20260510214309 | 50 | 53 | 3.0 | 12.0 | 0.00 | 0.00 | 0.00 | 65 | 8.6 |
| 20260510213309 | 50 | 86 | 4.0 | 13.0 | 0.00 | 0.00 | 0.00 | 64 | 8.6 |
| 20260510212309 | 50 | 76 | 6.0 | 14.0 | 0.00 | 0.00 | 0.00 | 64 | 8.5 |
| 20260510211309 | 50 | 324 | 3.0 | 11.0 | 0.00 | 0.00 | 0.00 | 64 | 8.6 |
| 20260510210309 | 50 | 72 | 8.0 | 12.0 | 0.00 | 0.00 | 0.00 | 64 | 8.8 |
| 20260510205309 | 51 | 53 | 2.0 | 13.0 | 0.00 | 0.00 | 0.00 | 64 | 9.0 |
| 20260510204310 | 51 | 63 | 3.0 | 9.0 | 0.00 | 0.00 | 0.00 | 65 | 9.0 |
| 20260510203309 | 51 | 26 | 2.0 | 9.0 | 0.00 | 0.00 | 0.00 | 65 | 9.1 |
| 20260510201309 | 52 | 35 | 6.0 | 11.0 | 0.00 | 0.00 | 0.00 | 64 | 9.1 |
| 20260510195310 | 52 | 73 | 2.0 | 17.0 | 0.00 | 0.00 | 0.00 | 64 | 9.2 |
| 20260510194309 | 53 | 45 | 4.0 | 14.0 | 0.00 | 0.00 | 0.00 | 64 | 9.5 |
| 20260510193310 | 53 | 59 | 5.0 | 13.0 | 0.00 | 0.00 | 0.00 | 64 | 9.4 |
| 20260510192309 | 53 | 37 | 6.0 | 16.0 | 0.00 | 0.00 | 0.00 | 63 | 9.1 |
| 20260510191309 | 54 | 12 | 3.0 | 14.0 | 0.00 | 0.00 | 0.00 | 63 | 9.2 |
| 20260510185309 | 55 | 71 | 2.0 | 17.0 | 0.00 | 0.00 | 0.00 | 63 | 9.2 |
| 20260510184310 | 55 | 30 | 8.0 | 19.0 | 0.00 | 0.00 | 0.00 | 63 | 9.3 |
| 20260510183309 | 56 | 49 | 3.0 | 15.0 | 0.00 | 0.00 | 0.00 | 62 | 9.4 |
| 20260510182309 | 56 | 55 | 6.0 | 16.0 | 0.00 | 0.00 | 0.00 | 62 | 9.4 |
| 20260510181309 | 57 | 61 | 5.0 | 12.0 | 0.00 | 0.00 | 0.00 | 62 | 9.5 |
| 20260510175310 | 58 | 87 | 3.0 | 13.0 | 0.00 | 0.00 | 0.00 | 62 | 9.4 |
| 20260510174309 | 58 | 83 | 5.0 | 16.0 | 0.00 | 0.00 | 0.00 | 62 | 9.6 |
| 20260510173310 | 58 | 39 | 8.0 | 17.0 | 0.00 | 0.00 | 0.00 | 62 | 9.6 |
| 20260510172309 | 59 | 58 | 6.0 | 13.0 | 0.00 | 0.00 | 0.00 | 61 | 9.5 |
| 20260510165310 | 60 | 58 | 9.0 | 18.0 | 0.00 | 0.00 | 0.00 | 60 | 9.2 |
| 20260510164309 | 60 | 85 | 4.0 | 16.0 | 0.00 | 0.00 | 0.00 | 60 | 9.4 |
| 20260510163310 | 61 | 28 | 6.0 | 16.0 | 0.00 | 0.00 | 0.00 | 60 | 9.4 |
| 20260510162309 | 61 | 51 | 5.0 | 17.0 | 0.00 | 0.00 | 0.00 | 59 | 9.6 |
| 20260510161309 | 61 | 89 | 6.0 | 17.0 | 0.00 | 0.00 | 0.00 | 59 | 9.8 |
| 20260510155310 | 62 | 96 | 5.0 | 16.0 | 0.00 | 0.00 | 0.00 | 58 | 10.1 |
| 20260510154309 | 63 | 21 | 5.0 | 13.0 | 0.00 | 0.00 | 0.00 | 58 | 10.0 |
| 20260510153310 | 63 | 75 | 6.0 | 15.0 | 0.00 | 0.00 | 0.00 | 55 | 10.1 |
| 20260510152309 | 64 | 66 | 8.0 | 15.0 | 0.00 | 0.00 | 0.00 | 54 | 10.2 |
| 20260510145309 | 64 | 28 | 2.0 | 16.0 | 0.00 | 0.00 | 0.00 | 54 | 10.5 |
| 20260510144310 | 64 | 44 | 5.0 | 11.0 | 0.00 | 0.00 | 0.00 | 53 | 10.6 |
| 20260510142313 | 64 | 41 | 1.0 | 12.0 | 0.00 | 0.00 | 0.00 | 55 | 10.8 |
| 20260510141309 | 64 | 53 | 4.0 | 13.0 | 0.00 | 0.00 | 0.00 | 54 | 10.8 |
| 20260510135309 | 65 | 65 | 6.0 | 16.0 | 0.00 | 0.00 | 0.00 | 53 | 10.8 |
| 20260510134310 | 65 | 360 | 3.0 | 18.0 | 0.00 | 0.00 | 0.00 | 54 | 10.8 |
| 20260510133309 | 64 | 74 | 8.0 | 15.0 | 0.00 | 0.00 | 0.00 | 53 | 11.3 |
| 20260510132309 | 65 | 65 | 6.0 | 15.0 | 0.00 | 0.00 | 0.00 | 53 | 11.3 |
| 20260510131309 | 65 | 5 | 4.0 | 12.0 | 0.00 | 0.00 | 0.00 | 54 | 11.3 |
| 20260510125310 | 64 | 39 | 1.0 | 17.0 | 0.00 | 0.00 | 0.00 | 53 | 11.7 |
| 20260510124309 | 65 | 58 | 6.0 | 15.0 | 0.00 | 0.00 | 0.00 | 54 | 12.0 |
| 20260510122309 | 65 | 102 | 2.0 | 11.0 | 0.00 | 0.00 | 0.00 | 54 | 12.2 |
| 20260510121310 | 64 | 355 | 8.0 | 18.0 | 0.00 | 0.00 | 0.00 | 54 | 12.3 |
| 20260510115309 | 64 | 341 | 3.0 | 16.0 | 0.00 | 0.00 | 0.00 | 55 | 12.3 |
| 20260510114310 | 64 | 105 | 7.0 | 12.0 | 0.00 | 0.00 | 0.00 | 53 | 12.4 |
| 20260510113309 | 64 | 77 | 4.0 | 11.0 | 0.00 | 0.00 | 0.00 | 54 | 12.5 |
| 20260510112309 | 64 | 40 | 5.0 | 14.0 | 0.00 | 0.00 | 0.00 | 52 | 12.6 |
| 20260510111309 | 64 | 58 | 3.0 | 12.0 | 0.00 | 0.00 | 0.00 | 52 | 12.8 |
| 20260510110309 | 64 | 85 | 8.0 | 16.0 | 0.00 | 0.00 | 0.00 | 50 | 12.8 |
| 20260510105309 | 64 | 355 | 3.0 | 16.0 | 0.00 | 0.00 | 0.00 | 50 | 12.8 |
| 20260510104309 | 63 | 53 | 4.0 | 13.0 | 0.00 | 0.00 | 0.00 | 52 | 12.8 |
| 20260510103309 | 63 | 44 | 10.0 | 17.0 | 0.00 | 0.00 | 0.00 | 49 | 12.8 |
| 20260510102309 | 63 | 66 | 4.0 | 10.0 | 0.00 | 0.00 | 0.00 | 50 | 12.9 |
| 20260510101310 | 63 | 59 | 7.0 | 14.0 | 0.00 | 0.00 | 0.00 | 50 | 12.9 |
| 20260510095309 | 62 | 47 | 8.0 | 15.0 | 0.00 | 0.00 | 0.00 | 52 | 13.0 |
| 20260510093309 | 63 | 82 | 3.0 | 13.0 | 0.00 | 0.00 | 0.00 | 53 | 13.2 |
| 20260510091309 | 62 | 13 | 5.0 | 13.0 | 0.00 | 0.00 | 0.00 | 52 | 13.4 |
| 20260510085309 | 61 | 18 | 10.0 | 17.0 | 0.00 | 0.00 | 0.00 | 52 | 13.6 |
| 20260510084310 | 61 | 85 | 2.0 | 12.0 | 0.00 | 0.00 | 0.00 | 54 | 13.6 |
| 20260510083310 | 61 | 86 | 6.0 | 18.0 | 0.00 | 0.00 | 0.00 | 54 | 13.7 |
| 20260510082310 | 61 | 26 | 9.0 | 17.0 | 0.00 | 0.00 | 0.00 | 54 | 13.8 |
| 20260510081309 | 61 | 60 | 6.0 | 15.0 | 0.00 | 0.00 | 0.00 | 54 | 13.9 |
| 20260510075309 | 60 | 331 | 4.0 | 11.0 | 0.00 | 0.00 | 0.00 | 57 | 13.8 |
| 20260510074309 | 59 | 65 | 1.0 | 11.0 | 0.00 | 0.00 | 0.00 | 59 | 13.7 |
| 20260510072309 | 56 | 49 | 6.0 | 15.0 | 0.00 | 0.00 | 0.00 | 58 | 13.7 |
| 20260510071309 | 55 | 344 | 1.0 | 10.0 | 0.00 | 0.00 | 0.00 | 62 | 13.7 |
| 20260510064309 | 53 | 60 | 2.0 | 10.0 | 0.00 | 0.00 | 0.00 | 68 | 13.8 |
| 20260510063309 | 53 | 97 | 2.0 | 11.0 | 0.00 | 0.00 | 0.00 | 71 | 13.9 |
| 20260510062309 | 52 | 311 | 0.0 | 6.0 | 0.00 | 0.00 | 0.00 | 75 | 13.8 |
| 20260510061309 | 51 | 9 | 0.0 | 4.0 | 0.00 | 0.00 | 0.00 | 78 | 13.8 |
| 20260510055309 | 50 | 355 | 0.0 | 0.0 | 0.00 | 0.00 | 0.00 | 80 | 13.8 |
| 20260510054310 | 50 | 17 | 0.0 | 1.0 | 0.00 | 0.00 | 0.00 | 81 | 13.8 |
| 20260510053309 | 49 | 347 | 0.0 | 1.0 | 0.00 | 0.00 | 0.00 | 82 | 13.6 |
| 20260510051309 | 49 | 20 | 0.0 | 0.0 | 0.00 | 0.00 | 0.00 | 83 | 13.8 |
| 20260510044309 | 48 | 5 | 0.0 | 1.0 | 0.00 | 0.00 | 0.00 | 82 | 13.7 |
| 20260510042309 | 48 | 12 | 0.0 | 0.0 | 0.00 | 0.00 | 0.00 | 82 | 13.9 |
| 20260510041309 | 48 | 12 | 0.0 | 0.0 | 0.00 | 0.00 | 0.00 | 82 | 13.8 |
| 20260510035309 | 48 | 36 | 0.0 | 1.0 | 0.00 | 0.00 | 0.00 | 82 | 13.7 |
| 20260510034311 | 48 | 29 | 0.0 | 0.0 | 0.00 | 0.00 | 0.00 | 82 | 13.7 |
| 20260510033310 | 48 | 38 | 0.0 | 2.0 | 0.00 | 0.00 | 0.00 | 82 | 13.8 |
| 20260510032310 | 48 | 45 | 0.0 | 2.0 | 0.00 | 0.00 | 0.00 | 82 | 13.6 |
| 20260510025309 | 48 | 355 | 0.0 | 0.0 | 0.00 | 0.00 | 0.00 | 80 | 13.7 |
| 20260510024310 | 48 | 360 | 0.0 | 0.0 | 0.00 | 0.00 | 0.00 | 79 | 13.8 |
| 20260510023312 | 48 | 26 | 0.0 | 0.0 | 0.00 | 0.00 | 0.00 | 79 | 13.9 |
| 20260510022309 | 48 | 29 | 0.0 | 1.0 | 0.00 | 0.00 | 0.00 | 79 | 13.8 |
| 20260510021309 | 48 | 9 | 0.0 | 0.0 | 0.00 | 0.00 | 0.00 | 79 | 13.9 |
| 20260510015309 | 49 | 5 | 0.0 | 0.0 | 0.00 | 0.00 | 0.00 | 78 | 14.0 |
| 20260510014309 | 49 | 355 | 0.0 | 1.0 | 0.00 | 0.00 | 0.00 | 78 | 14.0 |
| 20260510013311 | 49 | 40 | 0.0 | 0.0 | 0.00 | 0.00 | 0.00 | 78 | 14.1 |
| 20260510012310 | 49 | 14 | 0.0 | 0.0 | 0.00 | 0.00 | 0.00 | 77 | 14.1 |
| 20260510005309 | 50 | 348 | 0.0 | 0.0 | 0.00 | 0.00 | 0.00 | 75 | 14.2 |
| 20260510004310 | 50 | 360 | 0.0 | 0.0 | 0.00 | 0.00 | 0.00 | 75 | 14.3 |
| 20260510003310 | 50 | 17 | 0.0 | 0.0 | 0.00 | 0.00 | 0.00 | 74 | 14.2 |
| 20260510002309 | 51 | 22 | 0.0 | 1.0 | 0.00 | 0.00 | 0.00 | 74 | 14.4 |
| 20260509235309 | 51 | 355 | 0.0 | 0.0 | 0.00 | 0.00 | 0.00 | 74 | 14.5 |
| 20260509234309 | 51 | 28 | 0.0 | 1.0 | 0.00 | 0.00 | 0.00 | 73 | 14.6 |
| 20260509233309 | 52 | 20 | 0.0 | 1.0 | 0.00 | 0.00 | 0.00 | 73 | 14.6 |
| 20260509231309 | 52 | 46 | 0.0 | 0.0 | 0.00 | 0.00 | 0.00 | 71 | 14.8 |
| 20260509225309 | 53 | 5 | 0.0 | 0.0 | 0.00 | 0.00 | 0.00 | 70 | 14.7 |
| 20260509224309 | 53 | 11 | 0.0 | 2.0 | 0.00 | 0.00 | 0.00 | 70 | 14.8 |
| 20260509223309 | 53 | 35 | 0.0 | 1.0 | 0.00 | 0.00 | 0.00 | 70 | 14.7 |
| 20260509221309 | 54 | 49 | 0.0 | 2.0 | 0.00 | 0.00 | 0.00 | 69 | 14.7 |
| 20260509220309 | 54 | 360 | 0.0 | 0.0 | 0.00 | 0.00 | 0.00 | 69 | 14.7 |
| 20260509215310 | 54 | 51 | 0.0 | 1.0 | 0.00 | 0.00 | 0.00 | 69 | 15.0 |